Torna al catalogo

STARLINK-4742

AttivoComunicazioniVLEO
NORAD 53795·PAYLOAD·🇺🇸 United States

Lanciato Sep 11, 2022 da Cape Canaveral Space Force Station

Loading…

Prossimi Passaggi (prossime 24 ore)

TLE

AggiornatoSource: CelesTrak SupGP

Epoca: Sep 15, 2026, 01:19 UTC

1 53795C 22111Y   26258.05534722  .00010977  00000+0  35276-3 0  2584
2 53795  53.1574 132.2761 0001147  89.0243 234.2734 15.31718637    15

Traccia STARLINK-4742 in tempo reale con AllMySat

Download on the App Store